Weather History for Poplar Bluff, MO

Change the Weather History Date:

Monday, January 7, 2013

  Actual Average Record
Temperature  
Mean Temperature 32 °F -  
Max Temperature 43 °F 42 °F 67 °F (1965)
Min Temperature 21 °F 22 °F -5 °F (1970)
Degree Days  
Heating Degree Days 33    
Moisture  
Dew Point 24 °F    
Average Humidity 78    
Maximum Humidity 89    
Minimum Humidity 56    
Precipitation  
Precipitation 0.00 in - - ()
Sea Level Pressure  
Sea Level Pressure 30.36 in    
Wind  
Wind Speed 2 mph (SSE)    
Max Wind Speed 8 mph    
Max Gust Speed -    
Visibility 8 miles    
Events      
Averages and records for this station are not official NWS values.
T = Trace of Precipitation, MM = Missing Value Source: NWS Daily Summary

Daily Weather History Graph

Daily Weather History Graph

Search for Another Location

Airport:

Trip Planner

Search our weather history database for the weather conditions in past years. The results will help you decide how hot, cold, wet, or windy it might be!

Date:

Astronomy

Jan. 07, 2013 Rise Set
Actual Time 7:14 AM CST 5:01 PM CST
Civil Twilight 6:45 AM CST 5:29 PM CST
Nautical Twilight 6:13 AM CST 6:02 PM CST
Astronomical Twilight 5:42 AM CST 6:33 PM CST
Moon 2:40 AM CST (1/7) 1:11 PM CST (1/7)
Length of Visible Light 10h 44m
Length of Day
9h 46m
Waning Crescent, 22% of the Moon is Illuminated
Jan 7
Waning Crescent
Jan 11
New
Jan 18
First Quarter
Jan 26
Full
Feb 3
Last Quarter

Hourly Weather History & Observations

Time (CST) Temp. Windchill Dew Point Humidity Pressure Visibility Wind Dir Wind Speed Gust Speed Precip Events Conditions
12:53 AM 25.0 °F - 21.0 °F 85% 30.42 in 10.0 mi Calm Calm - N/A   Clear
1:53 AM 24.1 °F - 19.9 °F 84% 30.43 in 10.0 mi Calm Calm - N/A   Clear
2:53 AM 24.1 °F 19.7 °F 19.9 °F 84% 30.43 in 10.0 mi NNW 3.5 mph - N/A   Clear
3:53 AM 23.0 °F - 19.0 °F 85% 30.43 in 10.0 mi Calm Calm - N/A   Clear
5:53 AM 23.0 °F - 19.0 °F 85% 30.43 in 8.0 mi Calm Calm - N/A   Clear
6:53 AM 21.9 °F - 18.0 °F 85% 30.45 in 8.0 mi Calm Calm - N/A   Clear
7:53 AM 24.1 °F - 19.9 °F 84% 30.47 in 7.0 mi Calm Calm - N/A   Clear
8:53 AM 30.0 °F - 25.0 °F 82% 30.48 in 6.0 mi Calm Calm - N/A   Haze
9:53 AM 34.0 °F 28.8 °F 27.0 °F 75% 30.48 in 5.0 mi SSE 5.8 mph - N/A   Haze
10:53 AM 36.0 °F 29.6 °F 26.1 °F 67% 30.45 in 8.0 mi ESE 8.1 mph - N/A   Clear
11:53 AM 37.9 °F 34.4 °F 28.0 °F 68% 30.39 in 7.0 mi Variable 4.6 mph - N/A   Clear
1:53 PM 42.1 °F 39.2 °F 28.0 °F 58% 30.33 in 10.0 mi South 4.6 mph - N/A   Clear
2:53 PM 43.0 °F 38.2 °F 28.0 °F 56% 30.29 in 10.0 mi SSE 8.1 mph - N/A   Clear
3:53 PM 43.0 °F 40.3 °F 28.9 °F 58% 30.30 in 10.0 mi SSE 4.6 mph - N/A   Clear
5:53 PM 34.0 °F - 25.0 °F 70% 30.28 in 10.0 mi Calm Calm - N/A   Clear
6:53 PM 30.9 °F - 26.1 °F 82% 30.28 in 9.0 mi Calm Calm - N/A   Clear
7:53 PM 30.0 °F - 26.1 °F 85% 30.27 in 3.0 mi Calm Calm - N/A   Clear
8:53 PM 28.0 °F 24.2 °F 24.1 °F 85% 30.26 in 6.0 mi NNW 3.5 mph - N/A   Clear
9:53 PM 27.0 °F - 24.1 °F 89% 30.25 in 5.0 mi Calm Calm - N/A   Clear
10:53 PM 27.0 °F - 24.1 °F 89% 30.25 in 6.0 mi Calm Calm - N/A   Clear
11:53 PM 28.0 °F - 24.1 °F 85% 30.23 in 7.0 mi Calm Calm - N/A   Clear